Location: Boissi�res
(45.2500°N, 2.3667°E)
Time: 02:23:39
(UTC+00:00)

Meteor 2-12 Rocket - Pass Details

Date: 03 March 2021
Orbit: 936 x 957 km, 82.5° (Epoch: 20 April)

Event Time Altitude Azimuth Distance (km) Brightness Sun altitude
Rises 18:48:49 0° 184° (S) 3,583 7.5 -12.8°
Reaches altitude 10° 18:51:17 10° 184° (S) 2,645 6.8 -13.2°
Maximum altitude 18:57:20 84° 98° (E) 953 4.4 -14.3°
Drops below altitude 10° 19:03:27 10° 10° (N) 2,677 6.8 -15.4°
Sets 19:05:58 0° 10° (N) 3,629 7.5 -15.8°
